• In Deutschland
  • Länderverzeichnis
  • Für 7 Tage
  • Wassertemperatur
  • Satellitenkarten
  • Wetterkarte
  • Widgets
  • user-avatar
    Anmelden

    Stündliche Wetter Topka

    Heute, 20 Juli, Freitag

    Zeit Temperatur Niederschläge Wind Luftdruck Luftfeuchtigkeit
    00:00 +20°C° 0 mm 1 m/S 684 mmHg 77%
    01:00 +20°C° 0 mm 1 m/S 684 mmHg 79%
    02:00 +20°C° 0 mm 1 m/S 683 mmHg 80%
    03:00 +19°C° 0 mm 1 m/S 683 mmHg 82%
    04:00 +19°C° 0 mm 1 m/S 683 mmHg 84%
    05:00 +20°C° 0,5 mm 1 m/S 683 mmHg 82%
    06:00 +21°C° 0,5 mm 1 m/S 683 mmHg 79%
    07:00 +23°C° 0,5 mm 1 m/S 683 mmHg 76%
    08:00 +24°C° 0,4 mm 1 m/S 683 mmHg 70%
    09:00 +26°C° 0,4 mm 1 m/S 683 mmHg 64%
    10:00 +26°C° 0,4 mm 0 m/S 684 mmHg 57%
    11:00 +29°C° 0,5 mm 1 m/S 683 mmHg 58%
    12:00 +29°C° 0,5 mm 2 m/S 683 mmHg 60%
    13:00 +29°C° 0,5 mm 3 m/S 683 mmHg 61%
    14:00 +28°C° 0,7 mm 3 m/S 683 mmHg 64%
    15:00 +28°C° 0,7 mm 3 m/S 683 mmHg 66%
    16:00 +27°C° 0,7 mm 3 m/S 683 mmHg 69%
    17:00 +25°C° 0,4 mm 3 m/S 683 mmHg 73%
    18:00 +24°C° 0,4 mm 2 m/S 682 mmHg 77%
    19:00 +21°C° 0,4 mm 2 m/S 682 mmHg 81%
    20:00 +20°C° 0,5 mm 2 m/S 682 mmHg 84%
    21:00 +19°C° 0,5 mm 2 m/S 682 mmHg 87%
    22:00 +19°C° 0,5 mm 1 m/S 682 mmHg 89%
    23:00 +18°C° 0,8 mm 1 m/S 682 mmHg 90%

    Morgen, 21 Juli, Samstag

    Zeit Temperatur Niederschläge Wind Luftdruck Luftfeuchtigkeit
    00:00 +18°C° 0,8 mm 1 m/S 682 mmHg 91%
    01:00 +18°C° 0,8 mm 1 m/S 682 mmHg 92%
    02:00 +16°C° 1,3 mm 2 m/S 682 mmHg 93%
    03:00 +16°C° 1,3 mm 2 m/S 682 mmHg 93%
    04:00 +16°C° 1,3 mm 2 m/S 682 mmHg 94%
    05:00 +16°C° 0,8 mm 2 m/S 682 mmHg 92%
    06:00 +16°C° 0,8 mm 2 m/S 682 mmHg 91%
    07:00 +16°C° 0,8 mm 3 m/S 682 mmHg 89%
    08:00 +16°C° 0,9 mm 2 m/S 683 mmHg 89%
    09:00 +16°C° 0,9 mm 2 m/S 683 mmHg 89%
    10:00 +16°C° 0,9 mm 2 m/S 684 mmHg 89%
    11:00 +16°C° 1,4 mm 2 m/S 684 mmHg 89%
    12:00 +16°C° 1,4 mm 2 m/S 684 mmHg 90%
    13:00 +16°C° 1,4 mm 2 m/S 684 mmHg 90%
    14:00 +17°C° 0,3 mm 2 m/S 685 mmHg 84%
    15:00 +18°C° 0,3 mm 2 m/S 686 mmHg 79%
    16:00 +19°C° 0,3 mm 2 m/S 686 mmHg 73%
    17:00 +19°C° 0,2 mm 2 m/S 686 mmHg 76%
    18:00 +18°C° 0,2 mm 2 m/S 687 mmHg 79%
    19:00 +17°C° 0,2 mm 2 m/S 687 mmHg 81%
    20:00 +16°C° 0 mm 1 m/S 687 mmHg 83%
    21:00 +15°C° 0 mm 1 m/S 687 mmHg 85%
    22:00 +14°C° 0 mm 1 m/S 688 mmHg 87%
    23:00 +13°C° 0 mm 1 m/S 688 mmHg 87%

    übermorgen, 22 Juli, Sonntag

    Zeit Temperatur Niederschläge Wind Luftdruck Luftfeuchtigkeit
    00:00 +13°C° 0 mm 1 m/S 688 mmHg 87%
    01:00 +13°C° 0 mm 1 m/S 688 mmHg 87%
    02:00 +13°C° 0 mm 2 m/S 688 mmHg 88%
    03:00 +12°C° 0 mm 2 m/S 688 mmHg 89%
    04:00 +12°C° 0 mm 2 m/S 688 mmHg 90%
    05:00 +13°C° 0 mm 2 m/S 689 mmHg 85%
    06:00 +14°C° 0 mm 2 m/S 689 mmHg 81%
    07:00 +16°C° 0 mm 3 m/S 690 mmHg 77%
    08:00 +17°C° 0 mm 3 m/S 690 mmHg 69%
    09:00 +18°C° 0 mm 3 m/S 690 mmHg 62%
    10:00 +20°C° 0 mm 3 m/S 690 mmHg 55%
    11:00 +21°C° 0 mm 3 m/S 690 mmHg 50%
    12:00 +22°C° 0 mm 3 m/S 690 mmHg 45%
    13:00 +25°C° 0 mm 3 m/S 690 mmHg 40%
    14:00 +25°C° 0 mm 3 m/S 690 mmHg 39%
    15:00 +25°C° 0 mm 2 m/S 690 mmHg 38%
    16:00 +25°C° 0 mm 2 m/S 690 mmHg 37%
    17:00 +24°C° 0 mm 1 m/S 690 mmHg 44%
    18:00 +22°C° 0 mm 1 m/S 690 mmHg 50%
    19:00 +21°C° 0 mm 1 m/S 690 mmHg 57%
    20:00 +19°C° 0 mm 1 m/S 689 mmHg 60%
    21:00 +16°C° 0 mm 1 m/S 689 mmHg 64%
    22:00 +15°C° 0 mm 1 m/S 689 mmHg 67%
    23:00 +14°C° 0 mm 1 m/S 689 mmHg 69%

    23 Juli, Montag

    Zeit Temperatur Niederschläge Wind Luftdruck Luftfeuchtigkeit
    00:00 +13°C° 0 mm 1 m/S 689 mmHg 71%
    01:00 +13°C° 0 mm 1 m/S 689 mmHg 73%
    02:00 +13°C° 0 mm 1 m/S 689 mmHg 74%
    03:00 +12°C° 0 mm 1 m/S 688 mmHg 75%
    04:00 +12°C° 0 mm 1 m/S 688 mmHg 76%
    05:00 +14°C° 0 mm 1 m/S 688 mmHg 71%
    06:00 +16°C° 0 mm 1 m/S 689 mmHg 65%
    07:00 +19°C° 0 mm 1 m/S 689 mmHg 59%
    08:00 +21°C° 0 mm 1 m/S 689 mmHg 53%
    09:00 +23°C° 0 mm 2 m/S 689 mmHg 47%
    10:00 +25°C° 0 mm 2 m/S 689 mmHg 41%
    11:00 +26°C° 0 mm 2 m/S 689 mmHg 38%
    12:00 +27°C° 0 mm 2 m/S 688 mmHg 36%
    13:00 +28°C° 0 mm 1 m/S 688 mmHg 34%
    14:00 +29°C° 0,1 mm 1 m/S 688 mmHg 35%
    15:00 +29°C° 0,1 mm 1 m/S 687 mmHg 36%
    16:00 +29°C° 0,1 mm 2 m/S 687 mmHg 38%
    17:00 +27°C° 0,2 mm 2 m/S 687 mmHg 45%
    18:00 +25°C° 0,2 mm 2 m/S 686 mmHg 53%
    19:00 +24°C° 0,2 mm 2 m/S 686 mmHg 61%
    20:00 +21°C° 0,2 mm 2 m/S 686 mmHg 65%
    21:00 +19°C° 0,2 mm 2 m/S 686 mmHg 69%
    22:00 +17°C° 0,2 mm 2 m/S 686 mmHg 73%
    23:00 +18°C° 0 mm 1 m/S 686 mmHg 75%

    24 Juli, Dienstag

    Zeit Temperatur Niederschläge Wind Luftdruck Luftfeuchtigkeit
    00:00 +16°C° 0 mm 1 m/S 685 mmHg 76%
    01:00 +15°C° 0 mm 1 m/S 685 mmHg 78%
    02:00 +15°C° 0 mm 1 m/S 685 mmHg 78%
    03:00 +14°C° 0 mm 1 m/S 685 mmHg 79%
    04:00 +14°C° 0 mm 1 m/S 685 mmHg 80%
    05:00 +16°C° 0 mm 1 m/S 686 mmHg 75%
    06:00 +18°C° 0 mm 1 m/S 686 mmHg 70%
    07:00 +20°C° 0 mm 1 m/S 687 mmHg 65%
    08:00 +22°C° 0 mm 1 m/S 687 mmHg 58%
    09:00 +24°C° 0 mm 2 m/S 687 mmHg 50%
    10:00 +26°C° 0 mm 2 m/S 687 mmHg 43%
    11:00 +27°C° 0 mm 2 m/S 686 mmHg 40%
    12:00 +29°C° 0 mm 3 m/S 686 mmHg 37%
    13:00 +30°C° 0 mm 3 m/S 686 mmHg 34%
    14:00 +30°C° 0 mm 3 m/S 686 mmHg 33%
    15:00 +30°C° 0 mm 2 m/S 686 mmHg 33%
    16:00 +30°C° 0 mm 2 m/S 686 mmHg 33%
    17:00 +29°C° 0 mm 2 m/S 686 mmHg 39%
    18:00 +27°C° 0 mm 2 m/S 685 mmHg 45%
    19:00 +25°C° 0 mm 1 m/S 685 mmHg 51%
    20:00 +23°C° 0 mm 1 m/S 685 mmHg 55%
    21:00 +21°C° 0 mm 1 m/S 685 mmHg 58%
    22:00 +19°C° 0 mm 1 m/S 685 mmHg 61%
    23:00 +19°C° 0 mm 1 m/S 685 mmHg 63%

    25 Juli, Mittwoch

    Zeit Temperatur Niederschläge Wind Luftdruck Luftfeuchtigkeit
    00:00 +16°C° 0 mm 0 m/S 685 mmHg 65%
    01:00 +16°C° 0 mm 0 m/S 685 mmHg 67%
    02:00 +16°C° 0 mm 1 m/S 685 mmHg 69%
    03:00 +16°C° 0 mm 1 m/S 685 mmHg 71%
    04:00 +15°C° 0 mm 1 m/S 685 mmHg 73%
    05:00 +18°C° 0 mm 1 m/S 686 mmHg 69%
    06:00 +20°C° 0 mm 1 m/S 686 mmHg 64%
    07:00 +22°C° 0 mm 1 m/S 686 mmHg 60%
    08:00 +24°C° 0 mm 1 m/S 687 mmHg 54%
    09:00 +27°C° 0 mm 2 m/S 687 mmHg 48%
    10:00 +29°C° 0 mm 2 m/S 687 mmHg 42%
    11:00 +30°C° 0 mm 2 m/S 687 mmHg 40%
    12:00 +31°C° 0 mm 2 m/S 687 mmHg 37%
    13:00 +32°C° 0 mm 2 m/S 687 mmHg 35%
    14:00 +32°C° 0 mm 2 m/S 687 mmHg 35%
    15:00 +32°C° 0 mm 2 m/S 686 mmHg 35%
    16:00 +32°C° 0 mm 2 m/S 686 mmHg 35%
    17:00 +30°C° 0 mm 2 m/S 686 mmHg 43%
    18:00 +28°C° 0 mm 1 m/S 686 mmHg 50%
    19:00 +27°C° 0 mm 1 m/S 686 mmHg 57%
    20:00 +25°C° 0 mm 1 m/S 686 mmHg 60%
    21:00 +24°C° 0 mm 1 m/S 686 mmHg 63%
    22:00 +22°C° 0 mm 1 m/S 686 mmHg 66%
    23:00 +21°C° 0 mm 1 m/S 686 mmHg 68%
    Mehr zeigen